Location: Larch Mountain
(45.5297°N, 122.0872°W)
Time: 12:37:10
(UTC-08:00)

ISS - All Passes

Search period start: 27 February 2017 00:00
Search period end: 09 March 2017 00:00
Orbit: 399 x 408 km, 51.6° (Epoch: 28 February)

Date Brightness Start Highest point End Pass type
(mag) Time Alt. Az. Time Alt. Az. Time Alt. Az.
27 Feb - 06:21:53 10° SSE 06:23:15 12° SE 06:24:39 10° ESE visible
27 Feb - 07:55:56 10° SW 07:59:14 78° SSE 08:02:32 10° ENE daylight
27 Feb - 09:32:55 10° WNW 09:35:56 32° NNW 09:38:57 10° NE daylight
27 Feb - 11:10:02 10° NW 11:12:59 29° N 11:15:56 10° ENE daylight
27 Feb - 12:46:28 10° WNW 12:49:47 81° NNE 12:53:04 10° ESE daylight
27 Feb - 14:23:43 10° W 14:25:53 16° SW 14:28:00 10° S daylight
28 Feb - 07:03:34 10° SW 07:06:44 44° SE 07:09:54 10° ENE daylight
28 Feb - 08:40:06 10° W 08:43:15 40° NNW 08:46:24 10° NE daylight
28 Feb - 10:17:22 10° WNW 10:20:15 27° N 10:23:08 10° ENE daylight
28 Feb - 11:53:56 10° NW 11:57:11 52° NNE 12:00:24 10° E daylight
28 Feb - 13:30:38 10° WNW 13:33:31 28° SW 13:36:22 10° SSE daylight
01 Mar - 06:11:32 10° SSW 06:14:18 25° SE 06:17:05 10° E visible
01 Mar - 07:47:19 10° WSW 07:50:35 57° NNW 07:53:51 10° ENE daylight
01 Mar - 09:24:35 10° WNW 09:27:29 27° N 09:30:23 10° ENE daylight
01 Mar - 11:01:24 10° NW 11:04:31 38° NNE 11:07:37 10° E daylight
01 Mar - 12:37:51 10° WNW 12:41:04 50° SW 12:44:15 10° SE daylight
02 Mar - 05:20:01 10° S 05:21:55 15° SE 05:23:50 10° E visible
02 Mar - 06:54:40 10° WSW 06:57:58 89° N 07:01:17 10° ENE daylight
02 Mar - 08:31:45 10° WNW 08:34:44 30° N 08:37:42 10° NE daylight
02 Mar - 10:08:47 10° NW 10:11:47 31° N 10:14:46 10° ENE daylight
02 Mar - 11:45:12 10° WNW 11:48:31 86° SW 11:51:49 10° ESE daylight
02 Mar - 13:22:47 10° W 13:24:32 14° SW 13:26:15 10° SSW daylight
03 Mar - 06:02:12 10° SW 06:05:25 53° SE 06:08:38 10° ENE visible
03 Mar - 07:38:53 10° W 07:41:59 37° NNW 07:45:05 10° NE daylight
03 Mar - 09:16:06 10° WNW 09:19:00 27° N 09:21:54 10° ENE daylight
03 Mar - 10:52:37 10° WNW 10:55:54 59° NNE 10:59:09 10° ESE daylight
03 Mar - 12:29:26 10° W 12:32:09 24° SW 12:34:51 10° SSE daylight
04 Mar - 05:09:59 10° SSW 05:12:55 30° SE 05:15:51 10° ENE visible
04 Mar - 06:46:02 10° W 06:49:16 50° NNW 06:52:30 10° NE daylight
04 Mar - 08:23:19 10° WNW 08:26:12 27° N 08:29:06 10° ENE daylight
04 Mar - 10:00:03 10° NW 10:03:12 41° NNE 10:06:21 10° E daylight
04 Mar - 11:36:33 10° WNW 11:39:41 41° SW 11:42:48 10° SE daylight
05 Mar - 04:18:12 10° S 04:20:28 17° SE 04:22:45 10° E visible
05 Mar - 05:53:18 10° WSW 05:56:36 77° NNW 05:59:54 10° ENE visible
05 Mar - 07:30:28 10° WNW 07:33:24 29° N 07:36:21 10° NE daylight
05 Mar - 09:07:25 10° NW 09:10:27 32° NNE 09:13:28 10° ENE daylight
05 Mar - 10:43:50 10° WNW 10:47:08 74° SSW 10:50:24 10° SE daylight
05 Mar - 12:21:58 10° WSW 12:23:04 11° SW 12:24:09 10° SSW daylight
06 Mar - 05:00:43 10° SW 05:03:58 64° SSE 05:07:16 10° ENE visible
06 Mar - 06:37:33 10° W 06:40:36 34° NNW 06:43:40 10° NE daylight
06 Mar - 08:14:43 10° NW 08:17:39 28° N 08:20:34 10° ENE daylight
06 Mar - 09:51:12 10° WNW 09:54:29 68° NNE 09:57:46 10° ESE daylight
06 Mar - 11:28:10 10° W 11:30:40 20° SW 11:33:09 10° S daylight
07 Mar - 04:08:22 10° SSW 04:11:25 36° SE 04:14:29 10° ENE visible
07 Mar - 05:44:39 10° W 05:47:50 45° NNW 05:51:02 10° NE visible
07 Mar - 07:21:56 10° WNW 07:24:49 27° N 07:27:41 10° ENE daylight
07 Mar - 08:58:34 10° NW 09:01:47 45° NNE 09:04:58 10° E daylight
07 Mar - 10:35:09 10° WNW 10:38:11 35° SW 10:41:13 10° SSE daylight
08 Mar - 03:16:24 10° S 03:18:55 21° SE 03:21:27 10° E visible
08 Mar - 04:51:50 10° WSW 04:55:06 67° NNW 04:58:25 10° ENE visible
08 Mar - 06:29:03 10° WNW 06:31:58 28° N 06:34:53 10° NE daylight
08 Mar - 08:05:55 10° NW 08:09:00 34° NNE 08:12:03 10° E daylight
08 Mar - 09:42:21 10° WNW 09:45:37 62° SSW 09:48:51 10° SE daylight
